Regional Weather Roundup
Issued by NWS Pendleton, OR

Home | Current Version | Previous Version | Text Only | Print | Product List | Glossary On
Versions: 1 2 3 4 5 6 7 8 9 10 11 12 13 14 15 16 17 18 19 20 21 22 23 24 25 26 27 28 29 30 31 32 33 34 35 36 37 38 39 40 41 42 43 44 45 46 47 48 49 50
000
ASUS46 KPDT 291925
RWRPDT
PENDLETON REGIONAL WEATHER ROUNDUP
NATIONAL WEATHER SERVICE PENDLETON OREGON
1200 PM PDT SUN MAR 29 2015

NOTE: FAIR INDICATES FEW OR NO CLOUDS BELOW 12,000 FEET WITH NO
SIGNIFICANT WEATHER AND/OR OBSTRUCTIONS TO VISIBILITY.

# INDICATES UNOFFICIAL STATION AND DATA

WAZ520-292010-
EAST SLOPES OF WASHINGTON CASCADES

CITY            SKY/WX      TMP DP  RH  WIND    PRES   REMARKS
#BUMPING DAM    N/A         49  N/A N/A S5      N/A
#CLE ELUM HS    N/A         54  38  55  CALM    30.17F
#CLE ELUM LAKE  N/A         51  39  63  CALM    30.22F
#CLIFFDEL 2NW   N/A         51  39  63  CALM    N/A
#GLENWOOD       N/A         58  39  49  S7      30.24F
#MANASTASH CYN  N/A         51  36  56  N1      30.17F
#NELSON         N/A         52  38  59  CALM    30.25F
#NELSON 3SW     N/A         48  37  65  CALM    30.46F
#NILE           N/A         54  40  59  CALM    29.47F
#RONALD 2NW     N/A         51  35  54  SW1     30.08F
#SNOWDEN        N/A         57  22  25  NW5     N/A
#TEANAWAY 4NE   N/A         53  42  66  SW1     N/A
#TROUT LAKE 1NE N/A         58  37  45  W7      30.25F
$$

WAZ521-292010-
SIMCOE HIGHLANDS

CITY            SKY/WX      TMP DP  RH  WIND    PRES   REMARKS
#CENTERVILLE 4W N/A         57  40  53  W3      29.98F
#CENTERVILLE 1SWN/A         55  36  49  W7      30.22F
#GOLDENDALE     N/A         54  41  61  W6      N/A
#GOLDENDALE 1NE N/A         57  29  34  SW3     N/A
#GOLDENDALE 5WNWN/A         57  40  53  SW5     30.23F
#GOODNOE HILLS  N/A         60  39  46  W13     N/A
#LYLE 6NE       N/A         54  45  71  S3      30.23F
$$

WAZ026-292010-
KITTITAS VALLEY

CITY            SKY/WX      TMP DP  RH  WIND    PRES   REMARKS
ELLENSBURG AP   MOCLDY      61  34  36  W8      30.21F
#ELLENSBURG 3NE N/A         56  37  49  N2      30.20F
#ELLENSBURG 1E  N/A         59  40  49  CALM    N/A
#KITTITAS 4N    N/A         59  46  62  W2      28.51F
#KITTITAS 3S    N/A         55  43  64  CALM    30.20F
#THORP 6N       N/A         51  37  59  N9      30.25F
$$

WAZ027-292010-
YAKIMA VALLEY

CITY            SKY/WX      TMP DP  RH  WIND    PRES   REMARKS
SUNNYSIDE AP    MOCLDY      60  38  44  S3      30.22F
YAKIMA AIRPORT  MOCLDY      60  40  47  VRB3    30.22F
YAKIMA-VAGABOND PTCLDY      56  40  55  W6      30.21F
#DONALD 2NE     N/A         70  28  21  CALM    29.05F
#GRANDVIEW      N/A         62  41  46  CALM    30.23F
#MABTON         N/A         60  44  55  NW3     30.22F
#MOXEE 2E       N/A         61  17  18  E2      30.08F
#NACHES 2SW     N/A         56  42  59  CALM    30.23F
#OUTLOOK DOT    N/A         N/A N/A N/A CALM    N/A
#SELAH 8E       N/A         57  33  40  W7      N/A
#TERRACE HTS    N/A         58  38  47  S2      30.18F
#TOPPENISH      N/A         59  40  49  CALM    30.14F
#WAPATO 4NE     N/A         70  28  21  CALM    29.05F
#WEST VALLEY    N/A         57  39  51  W2      30.19F
#W YAKIMA       N/A         58  41  53  SE1     30.21F
#WHITE SWAN 5E  N/A         58  44  60  N3      30.22F
#WILEY CITY 3W  N/A         60  39  46  CALM    30.22F
$$

WAZ028-292010-
LOWER COLUMBIA BASIN...WASHINGTON

CITY            SKY/WX      TMP DP  RH  WIND    PRES   REMARKS
HANFORD         MOCLDY      60  40  47  NE5     30.22F
PASCO           SUNNY       65  40  40  SW9     30.23F
PROSSER AWOS    N/A         64  39  40  S5      30.24F
RICHLAND AWOS   PTCLDY      66  41  40  SW14    30.23F
#BASIN CITY 5SW N/A         64  43  46  S5      30.22F
#BENTON CITY    N/A         62  40  44  SW7     30.13F
#CONNELL 5N     N/A         60  42  51  SW10    30.23F
#CONNELL 5NW    N/A         59  44  57  SW7     30.19F
#ELTOPIA        N/A         65  45  48  SW8     30.19F
#ELTOPIA 6NW    N/A         61  43  51  SW10    29.18F
#KAHLOTUS       N/A         60  43  53  W6      30.23F
#KENNEWICK 3S   N/A         63  41  44  W5      30.24F
#PASCO-BROADMOORN/A         66  39  37  SW6     30.12F
#PATERSON       N/A         59  44  57  S5      30.22F
#PROSSER        N/A         62  39  43  S7      30.22F
#SAGEMOOR 2W    N/A         63  43  48  S7      30.08F
#TOUCHET 2S     N/A         67  46  47  W3      30.20F
#WEST PASCO     N/A         67  46  47  W5      30.28F
$$

WAZ029-292010-
FOOTHILLS OF THE BLUES...WASHINGTON

CITY            SKY/WX      TMP DP  RH  WIND    PRES   REMARKS
WALLA WALLA AP  MOSUNNY     63  38  39  S8      30.23F
#DAYTON SCHOOL  N/A         60  34  37  SW5     30.23F
#LOWDEN 2SE     N/A         65  45  48  S2      30.19F
#PLEASANT VIEW 1N/A         60  41  49  SW9     30.27F
#PRESCOTT       N/A         63  44  50  S1      30.23F
#SUDBURY        N/A         66  N/A N/A CALM    N/A
#WHITMAN COLLEGEN/A         62  41  46  S3      30.27F
#WAITSBURG 5S   N/A         59  45  60  S6      30.32F
#WAITSBURG 8N   N/A         62  21  20  S10     30.06F
#WALLA WALLA 5E N/A         63  44  50  W6      N/A
#WALLA WALLA U  N/A         64  43  46  CALM    30.22F
#WHITMAN MISSIONN/A         65  46  50  CALM    30.23F
$$

WAZ030-292010-
BLUE MOUNTAINS...WASHINGTON

CITY            SKY/WX      TMP DP  RH  WIND    PRES   REMARKS
#DIXIE 5SE      N/A         56  31  38  S5      30.16F
$$

ORZ009-041-WAZ024-292010-
COLUMBIA RIVER GORGE

CITY            SKY/WX      TMP DP  RH  WIND    PRES   REMARKS
HOOD RIVER AP   PTCLDY      63  43  48  N7      30.25F
THE DALLES AP   PTCLDY      60  43  53  CALM    30.25F
#ARLINGTON AIRPON/A         61  43  51  W14     29.98F
#CELILO DOT     N/A         58  41  53  NW1     N/A
#LYLE           N/A         58  46  64  W2      30.26F
#MOSIER 1S      N/A         59  36  42  CALM    30.24F
#MURDOCK        N/A         58  47  67  NW7     30.27F
#RUFUS DOT      N/A         58  39  49  CALM    N/A

$$

ORZ510-292010-
NORTH CENTRAL OREGON

CITY            SKY/WX      TMP DP  RH  WIND    PRES   REMARKS
#CHENOWITH 1W   N/A         54  39  57  W10     N/A
#COW CYN RST AREN/A         55  31  40  SW7     N/A
#DUFUR 9E       N/A         53  42  66  N7      30.30F
#GRASS VALLEY 1SN/A         59  38  45  W8      30.26F
#KENT DOT       N/A         59  30  33  SW8     N/A
#MAUPIN SCHOOL  N/A         61  41  48  NE2     30.25F
#MORO SCHOOL    N/A         57  45  64  N2      30.25F
#SHANIKO 5WSW   N/A         55  26  32  S12     N/A
#SHANIKO 4NW    N/A         55  30  38  SW7     30.25F
#TYGH VALLEY 2NEN/A         60  44  55  NE1     30.23F
#WAPANITIA AIRPON/A         61  38  42  SW2     30.26F
#WASCO DOT      N/A         60  35  39  W8      N/A
#WASCO AIRPORT  N/A         57  41  55  NW12    N/A
#WASCO 5NE      N/A         58  39  49  N6      30.25F
$$

ORZ511-292010-
CENTRAL OREGON

CITY            SKY/WX      TMP DP  RH  WIND    PRES   REMARKS
BEND AIRPORT    SUNNY       59  27  29  CALM    30.24F
MADRAS AIRPORT  SUNNY       55  37  51  N3      30.28F
PRINEVILLE AP   SUNNY       61  25  25  CALM    30.24F
REDMOND AIRPORT SUNNY       61  26  26  VRB3    30.24F
#BEND 6E        N/A         62  23  22  CALM    30.18F
#BEND 1SW       N/A         62  33  34  W1      N/A
#BEND-AWBREY    N/A         61  30  31  CALM    30.25F
#BEND-KIM LN    N/A         63  32  31  SW2     30.22F
#CULVER         N/A         61  32  33  SE6     30.20F
#LAKE BILLY CHINN/A         61  -1   8  NE3     30.25F
#MADRAS         N/A         55  35  47  NW3     N/A
#POWELL BUTTE   N/A         66  40  38  N6      29.85F
#PRINEVILLE 3N  N/A         60  33  36  SE2     30.22F
#WARM SPRINGS   N/A         61  38  42  N3      30.21F

$$


ORZ509-292010-
EAST SLOPES OF OREGON CASCADES

CITY            SKY/WX      TMP DP  RH  WIND    PRES   REMARKS
#BLUE BOX PASS  N/A         51  -1  11  NW3     N/A
#CAMP SHERMAN   N/A         66  34  30  CALM    30.23F
#LA PINE 4NW    N/A         57  33  40  CALM    30.34F
#LAVA BUTTE DOT N/A         58  26  29  SW3     N/A
#SISTERS AIRPOR N/A         59  37  44  N3      30.17S
#SISTERS ODOT   N/A         58  N/A N/A E1      N/A
#SISTERS 1NW    N/A         58  27  30  N6      N/A
#SISTERS 3N     N/A         59  35  40  E3      30.25F
#SUNRIVER       N/A         58  30  34  S2      30.17F
#TUMALO 3W      N/A         59  28  30  CALM    30.13F
#WANOGA BUTTE D N/A         50  27  41  W6      N/A

$$

ORZ044-292010-
LOWER COLUMBIA BASIN...OREGON

CITY            SKY/WX      TMP DP  RH  WIND    PRES   REMARKS
HERMISTON       SUNNY       62  40  44  W6      30.23F
#BOARDMAN SCHOOLN/A         63  42  46  N2      30.22F
#BOARDMAN 8SW   N/A         63  42  46  W7      30.22F
#ECHO 8SW       N/A         64  40  41  NW12    30.19F
#IONE SCHOOL    N/A         62  39  43  NW6     30.21F
#IRRIGON 4NW    N/A         58  44  60  W3      N/A
#UMATILLA       N/A         61  43  51  N2      30.15F
$$

ORZ507-292010-
NORTHERN FOOTHILLS OF THE BLUES

CITY            SKY/WX      TMP DP  RH  WIND    PRES   REMARKS
PENDLETON AIRPT SUNNY       61  39  44  VRB3    30.23F
#ADAMS 3WNW     N/A         61  44  53  S2      30.23F
#ATHENA         N/A         61  36  39  W3      30.25F
#CAYUSE         N/A         61  41  48  CALM    30.22F
#HELIX SCHOOL   N/A         62  40  44  S3      30.23F
#HELIX 3N       N/A         60  37  42  S9      30.19F
#HELIX 6SW      N/A         60  40  47  SW3     30.21F
#HOLDMAN 5SE    N/A         61  41  48  W5      30.22F
#HOLDMAN 6E     N/A         61  38  42  NE7     30.04F
#M-F FERNDALE   N/A         67  43  42  CALM    30.21F
#M-F GROVE ELEM N/A         65  34  31  CALM    30.19F
#M-FREEWATER 5SEN/A         66  43  43  CALM    30.21F
#PENDLETON DNTN N/A         66  39  37  CALM    30.22F
#PDT AQUATIC CTRN/A         63  44  50  N3      30.22F
#PENDLETON 5NE  N/A         63  44  50  CALM    30.18F
#PDT SUNRIDGE   N/A         62  40  44  CALM    30.23F
#PENDLETON 7NW  N/A         66  43  43  CALM    28.06S
#TUTUILLA       N/A         63  39  41  E1      30.23F
#UMAPINE 2E     N/A         65  42  43  S1      30.19F
#WESTON SCHOOL  N/A         61  30  31  W3      30.20F

$$

ORZ508-292010-
SOUTHERN FOOTHILLS OF THE BLUES

CITY            SKY/WX      TMP DP  RH  WIND    PRES   REMARKS
LEXINGTON       SUNNY       66  34  30  W9      30.23F
#AJAX           N/A         58  34  40  CALM    30.16F
#CONDON SCHOOL  N/A         59  35  40  CALM    30.18F
#CONDON 5W      N/A         57  31  37  SW8     30.21F
#FOSSIL SCHOOL  N/A         61  34  36  SW3     30.18F
#HEPPNER EOC    N/A         64  35  34  N3      30.17F
#HEPPNER 4NE    N/A         61  36  39  SW3     30.23F
#LEXINGTON 2SE  N/A         65  36  34  NW6     30.18F
#MIKKALO        N/A         61  38  42  NW10    30.22F
#OLEX 4N        N/A         60  44  55  W12     30.22F
#RUGGS 5NE      N/A         65  35  33  SW2     30.40S
#RUGGS 2SW      N/A         62  29  28  W7      30.24F

$$

ORZ502-503-292010-
BLUE MOUNTAINS

CITY            SKY/WX      TMP DP  RH  WIND    PRES   REMARKS
MEACHAM         SUNNY       57  28  33  CALM    30.25F
#BATTLE MTN DOT N/A         51  36  56  S8      N/A
#HEPPNER 15SE   N/A         56  28  34  NW5     30.16F
#LADD CYN SMT   N/A         52  25  35  E13     N/A
#LADD CREEK ODOTN/A         57  32  38  S5      N/A
#LONG CREEK HS  N/A         56  35  45  CALM    30.22F
#PIKES PEAK     N/A         53  33  46  S14     27.99S
#TOLLGATE       N/A         49  31  50  S2      30.18F
#TROY SCHOOL    N/A         58  41  53  CALM    30.11F
#UKIAH          N/A         58  34  40  S5      30.32F
#WESTON 4E      N/A         58  36  44  S5      30.20F
$$

ORZ505-292010-
JOHN DAY BASIN

CITY            SKY/WX      TMP DP  RH  WIND    PRES   REMARKS
JOHN DAY        SUNNY       60  32  35  E3      30.26F
#JOHN DAY KJDY  N/A         59  48  67  SW1     30.21F
#DAYVILLE SCHOOLN/A         56  34  43  CALM    30.22F
#MITCHELL       N/A         60  42  51  W1      30.33F
#MONUMENT HS    N/A         57  32  38  CALM    30.24F
#MT. VERNON 5SE N/A         56  38  51  NW1     30.22F
#WINLOCK        N/A         60  36  41  E5      30.31F
$$

ORZ506-292010-
OCHOCO AND JOHN DAY HIGHLANDS

CITY            SKY/WX      TMP DP  RH  WIND    PRES   REMARKS
#BUCK CREEK DOT N/A         59  59  100 CALM    N/A
#HORSE RIDGE DO N/A         61  18  19  CALM    N/A
#KEYES SMT DOT  N/A         56  32  40  CALM    N/A
#PAULINA SCHOOL N/A         69  35  28  NE1     30.23F
#PINE MTN OBS   N/A         49  23  36  S9      N/A
#PRAIRIE CITY   N/A         58  25  28  SE2     30.22F
#SENECA         N/A         55  N/A N/A N1      N/A
#SENECA 9NW     N/A         54  30  40  CALM    30.32F
$$

ORZ049-292010-
GRANDE RONDE VALLEY

CITY            SKY/WX      TMP DP  RH  WIND    PRES   REMARKS
LA GRANDE       SUNNY       57  34  42  E5      30.25F
#COVE           N/A         55  43  64  N1      30.26F
#COVE SCHOOL    N/A         57  39  51  CALM    30.22F
#ELGIN 3N       N/A         58  36  44  S6      30.21F
#ELGIN 1E       N/A         56  38  51  CALM    N/A
#IMBLER SCHOOL  N/A         54  38  55  S9      30.19F
#ISLAND CITY 4N N/A         58  49  72  S1      30.27F
#LADD CYN DOT   N/A         57  31  37  SE9     N/A
#UNION 1S       N/A         58  36  44  S7      30.20F
$$

ORZ050-292010-
WALLOWA COUNTY

CITY            SKY/WX      TMP DP  RH  WIND    PRES   REMARKS
JOSEPH AIRPORT  PTCLDY      55  21  26  E3      30.27F
#ENTERPRISE HS  N/A         55  30  38  CALM    30.22F
#IMNAHA 10S     N/A         59  35  40  NE2     30.21F
#JOSEPH 3N      N/A         53  32  45  CALM    30.25F
#JOSEPH 3W      N/A         55  23  29  CALM    30.08F
#LOSTINE        N/A         51  35  54  NW1     30.11F
#MT HOWARD 8000 N/A         41  23  48  SW5     30.29F
#PROMISE 1S     N/A         53  33  46  SE7     30.38F
#SHEEP RDG 7000 N/A         41  24  50  CALM    30.35F
#WALLOWA SCHOOL N/A         52  32  46  CALM    31.27F



$$



USA.gov is the U.S. government's official web portal to all federal, state and local government web resources and services.